Location: Ostrava
(49.8330°N, 18.2830°E)
Time: 07:42:32
(UTC+01:00)

Cosmos 1263 Rocket - Visible Passes

Search period start: 24 November 2014 00:00
Search period end: 04 December 2014 00:00
Orbit: 313 x 537 km, 82.9° (Epoch: 23 November)

Date Brightness Start Highest point End Pass type
(mag) Time Alt. Az. Time Alt. Az. Time Alt. Az.
24 Nov 2.2 16:39:58 10° S 16:43:47 72° E 16:47:45 10° NNE visible
24 Nov 5.3 18:16:14 10° W 18:18:07 13° WNW 18:20:01 10° NW visible
25 Nov 4.4 17:31:04 10° SW 17:34:25 27° WNW 17:37:51 10° NNW visible
26 Nov 2.7 16:46:59 10° SSW 16:50:50 64° WNW 16:54:47 10° N visible
27 Nov 5.1 17:38:48 10° WSW 17:41:27 17° WNW 17:44:07 10° NNW visible
28 Nov 3.8 16:53:53 10° SW 16:57:32 37° WNW 17:01:14 10° N visible
29 Nov 5.4 17:47:07 10° WNW 17:48:07 11° WNW 17:49:07 10° NW visible
30 Nov 4.6 17:00:43 10° WSW 17:03:52 23° WNW 17:07:03 10° NNW visible
02 Dec 5.1 17:07:37 10° W 17:09:51 15° WNW 17:12:04 10° NNW visible
03 Dec 4.1 16:21:52 10° SW 16:25:23 31° WNW 16:28:53 10° N visible
